"Time","Temp","Dewpoint","Humidity","Pressure","Direction","Speed","Gust","Precip","PrecipRate"
"00:04:57","40.8","31.3","68.7","30.01","292","1.9","6","0.00","0.00"
"00:09:57","41.1","31.2","67.7","30.01","317","2.6","8.4","0.00","0.00"
"00:14:56","42","31.4","65.8","30.02","327","4.9","12","0.00","0.00"
"00:19:56","42.7","31.7","64.9","30.02","328","2.9","7.2","0.00","0.00"
"00:24:58","42.5","31.6","64.9","30.02","359","2.1","6","0.00","0.00"
"00:29:59","42.1","31.4","65.5","30.03","360","2.1","3.6","0.00","0.00"
"00:34:59","41.7","31.2","66","30.03","357","1.6","3.6","0.00","0.00"
"00:39:58","41.5","31.1","66.1","30.03","340","2.3","3.6","0.00","0.00"
"00:44:57","41.4","31.2","66.8","30.03","333","1.7","3.6","0.00","0.00"
"00:49:57","40.9","31.3","68.4","30.03","316","2.1","3.6","0.00","0.00"
"00:54:59","40.3","30.9","69","30.03","309","2.9","4.8","0.00","0.00"
"00:59:57","40.2","30.8","69","30.03","317","1.9","3.6","0.00","0.00"
"01:04:59","40.2","30.8","69","30.02","331","2.8","7.2","0.00","0.00"
"01:09:58","40.3","30.9","68.8","30.02","318","2.8","8.4","0.00","0.00"
"01:14:57","41","31.1","67.5","30.02","316","4.6","15","0.00","0.00"
"01:19:59","41.6","31.3","66.7","30.02","307","0.5","4.8","0.00","0.00"
"01:24:57","41.6","31.1","66","30.02","350","0.8","4.6","0.00","0.00"
"01:29:59","41.3","31.1","66.9","30.03","350","0","0","0.00","0.00"
"01:34:58","40.7","30.8","67.4","30.03","350","0","0","0.00","0.00"
"01:39:58","40","30.6","68.7","30.03","350","0","0","0.00","0.00"
"01:44:56","39.3","30.5","70.5","30.03","350","0","0","0.00","0.00"
"01:49:58","38.7","30.1","71","30.03","350","1.8","4.8","0.00","0.00"
"01:54:56","38.7","30.3","71.3","30.03","312","3.2","4.8","0.00","0.00"
"01:59:57","39","30.4","71","30.03","315","2.7","4.8","0.00","0.00"
"02:04:59","39.1","30.5","71","30.03","324","2.4","6","0.00","0.00"
"02:09:59","39.2","30.6","71","30.03","344","3.6","12","0.00","0.00"
"02:14:58","39.5","30.4","69.6","30.03","342","4.3","13.2","0.00","0.00"
"02:19:56","39.9","30.4","68.7","30.03","340","3.6","12.7","0.00","0.00"
"02:24:58","40.2","30.5","68","30.03","13","1.3","6","0.00","0.00"
"02:29:56","40.3","30.3","67.4","30.04","329","1","3.6","0.00","0.00"
"02:34:58","40.2","30.3","67.6","30.04","324","1.3","3.6","0.00","0.00"
"02:39:57","39.9","30.2","68","30.04","324","0.6","2.4","0.00","0.00"
"02:44:59","39.4","30","68.7","30.05","0","1","3.6","0.00","0.00"
"02:49:58","38.9","29.9","69.9","30.05","15","1.2","2.4","0.00","0.00"
"02:54:56","38.6","29.9","70.7","30.05","16","0.3","2.3","0.00","0.00"
"02:59:58","38.3","29.7","71","30.05","16","0.1","1.2","0.00","0.00"
"03:04:57","38","29.4","71.1","30.05","15","0.2","1.2","0.00","0.00"
"03:09:57","37.7","29.5","72","30.05","15","0.1","1.2","0.00","0.00"
"03:14:57","37.4","29.3","72.3","30.06","15","0.4","2.4","0.00","0.00"
"03:19:56","37.2","29.3","73","30.06","15","0.1","1.2","0.00","0.00"
"03:24:58","36.9","29.4","73.9","30.06","15","0","0","0.00","0.00"
"03:29:56","36.7","29.3","74.5","30.07","15","0.1","1.2","0.00","0.00"
"03:34:59","36.6","29.3","74.9","30.07","15","0.1","2.4","0.00","0.00"
"03:39:59","36.6","29.5","75.3","30.07","316","1.5","3.6","0.00","0.00"
"03:44:59","36.8","29.4","74.6","30.07","294","2","4.8","0.00","0.00"
"03:49:57","37.8","29.7","72.4","30.07","322","2.7","6","0.00","0.00"
"03:54:59","38.6","29.8","70.5","30.07","312","2.9","4.8","0.00","0.00"
"03:59:59","39","29.8","69.3","30.07","292","1.3","3.6","0.00","0.00"
"04:04:58","39.1","29.8","69","30.07","279","1.1","3.6","0.00","0.00"
"04:09:57","38.9","29.8","69.5","30.07","268","1.9","3.6","0.00","0.00"
"04:14:56","38.3","29.6","70.4","30.07","194","1.7","3.6","0.00","0.00"
"04:19:59","38.1","29.5","71.1","30.07","192","1","2.4","0.00","0.00"
"04:24:56","37.8","29.6","72","30.07","192","0","0","0.00","0.00"
"04:29:58","37.4","29.6","73.2","30.07","192","0.6","2.4","0.00","0.00"
"04:34:56","37","29.4","73.8","30.07","193","0.6","2.4","0.00","0.00"
"04:39:58","37.3","29.4","73","30.07","193","1.1","2.4","0.00","0.00"
"04:44:59","37.6","29.4","72","30.07","193","0","1.2","0.00","0.00"
"04:49:57","37.7","29.7","72.6","30.07","193","0.8","2.4","0.00","0.00"
"04:54:59","37.4","29.5","73","30.07","193","0.8","2.4","0.00","0.00"
"04:59:57","37.1","29.5","73.9","30.07","193","1.8","2.4","0.00","0.00"
"05:04:56","37","29.5","74","30.07","193","1.2","2.4","0.00","0.00"
"05:09:56","37","29.4","73.8","30.07","193","0.3","2.4","0.00","0.00"
"05:14:56","36.7","29.3","74.1","30.08","186","1.8","3.6","0.00","0.00"
"05:19:58","36.5","29.3","75","30.08","171","1.6","3.5","0.00","0.00"
"05:24:57","36.3","29.4","75.8","30.08","171","0.4","2.4","0.00","0.00"
"05:29:59","36.1","29.5","76.6","30.08","171","2","2.4","0.00","0.00"
"05:34:58","36","29.3","76.1","30.07","172","0.2","2.4","0.00","0.00"
"05:39:58","35.8","29.2","76.5","30.07","170","2","3.6","0.00","0.00"
"05:44:56","35.6","29.1","77","30.09","169","1","3.5","0.00","0.00"
"05:49:58","35.5","29.4","78.4","30.09","192","2.9","4.8","0.00","0.00"
"05:54:56","35.8","29.4","77.3","30.09","281","3.1","4.8","0.00","0.00"
"05:59:58","36.3","29.5","76","30.09","313","1.7","4.8","0.00","0.00"
"06:04:56","36.5","29.7","76","30.08","101","3.5","4.8","0.00","0.00"
"06:09:56","36.5","29.7","76","30.08","100","2","4.6","0.00","0.00"
"06:14:55","36.5","29.7","76","30.08","55","1.7","3.6","0.00","0.00"
"06:19:58","36.4","29.7","76.5","30.07","360","0.1","1.2","0.00","0.00"
"06:24:56","36.1","29.5","76.9","30.07","17","1.8","3.6","0.00","0.00"
"06:29:58","35.8","29.5","77.4","30.09","55","1.1","3.5","0.00","0.00"
"06:34:57","35.6","29.5","78.3","30.09","54","0.5","3.6","0.00","0.00"
"06:39:56","35.4","29.2","78","30.09","39","1.5","3.6","0.00","0.00"
"06:44:58","35.4","29.2","78","30.09","57","1.9","4.8","0.00","0.00"
"06:49:56","35.4","29.4","78.7","30.09","72","2.4","4.6","0.00","0.00"
"06:54:58","35.3","29.4","79","30.09","72","1.1","3.5","0.00","0.00"
"06:59:56","35.2","29.3","79","30.09","71","0.4","2.4","0.00","0.00"
"07:04:59","35.4","29.5","79","30.09","71","0.4","2.4","0.00","0.00"
"07:09:58","35.5","29.6","79","30.09","72","0","0","0.00","0.00"
"07:14:58","35.6","29.9","79.6","30.10","71","0","0","0.00","0.00"
"07:19:56","35.6","30","80","30.10","69","2.4","3.6","0.00","0.00"
"07:24:58","35.5","29.9","80","30.10","69","0.7","2.4","0.00","0.00"
"07:29:56","35.4","29.8","80","30.10","200","0.1","1.2","0.00","0.00"
"07:34:59","35.5","29.9","80","30.10","278","0.5","3.6","0.00","0.00"
"07:39:58","35.4","30.2","81.3","30.10","282","0","0","0.00","0.00"
"07:44:57","35.4","30.1","81","30.10","282","0","0","0.00","0.00"
"07:49:59","35.5","30.2","81","30.10","282","0","0","0.00","0.00"
"07:54:56","35.6","30.3","81","30.10","282","0","0","0.00","0.00"
"07:59:59","35.8","30.7","81.5","30.10","282","0.7","3.6","0.00","0.00"
"08:04:56","36.2","30.8","80.9","30.10","282","2.2","3.6","0.00","0.00"
"08:09:56","36.8","31.2","80.2","30.10","282","0.4","2.3","0.00","0.00"
"08:14:59","37.4","31.6","79.2","30.10","282","0.1","1.2","0.00","0.00"
"08:19:58","37.7","31.6","78.3","30.10","282","0","0","0.00","0.00"
"08:24:56","38","32.2","79.4","30.10","282","0","0","0.00","0.00"
"08:29:57","38.3","32.7","80.2","30.10","282","0","0","0.00","0.00"
"08:34:56","38.8","32.9","79.3","30.10","282","0","0","0.00","0.00"
"08:39:59","39.4","33","77.7","30.10","282","0","2.4","0.00","0.00"
"08:44:57","40.1","33.5","77.1","30.10","216","2","3.6","0.00","0.00"
"08:49:58","40.4","33.1","74.9","30.10","200","0.3","2.3","0.00","0.00"
"08:54:56","40.6","33.9","76.7","30.10","200","0.2","2.4","0.00","0.00"
"08:59:58","40.9","33.9","76.2","30.11","200","0","0","0.00","0.00"
"09:04:56","41.1","33.2","73.3","30.11","200","0","0","0.00","0.00"
"09:09:59","41.4","33.4","73","30.11","200","0.1","1.2","0.00","0.00"
"09:14:59","41.7","33.8","73.3","30.11","200","0.1","2.4","0.00","0.00"
"09:19:57","42","33.3","71.1","30.11","200","0.3","2.3","0.00","0.00"
"09:24:59","42.3","33.2","69.9","30.11","200","0","0","0.00","0.00"
"09:29:56","42.6","33.4","69.8","30.11","200","0.2","2.4","0.00","0.00"
"09:34:57","42.9","34.1","71.1","30.11","200","0.5","2.4","0.00","0.00"
"09:39:56","43.1","34","70.1","30.11","200","0.1","1.2","0.00","0.00"
"09:44:58","43.4","33.1","66.7","30.11","200","0","0","0.00","0.00"
"09:49:57","43.8","32.7","64.7","30.11","200","0","0","0.00","0.00"
"09:54:58","44.2","33","64.4","30.11","200","0","0","0.00","0.00"
"09:59:56","44.7","33.2","63.9","30.11","195","0.8","3.6","0.00","0.00"
"10:04:58","45","32.3","60.8","30.10","293","2.2","6","0.00","0.00"
"10:09:57","45.3","31.9","59.3","30.10","337","1.8","5.8","0.00","0.00"
"10:14:57","46.2","32.9","59.5","30.10","335","0.5","3.6","0.00","0.00"
"10:19:58","47.1","32.5","56.5","30.10","346","2.5","6","0.00","0.00"
"10:24:56","47.3","32.8","57","30.10","294","2.3","6","0.00","0.00"
"10:29:57","47.1","32.3","56.3","30.10","277","3.3","7.2","0.00","0.00"
"10:34:59","47.4","32.5","56.2","30.10","336","3.6","8.4","0.00","0.00"
"10:39:57","46.9","32","56","30.10","337","3.5","8.4","0.00","0.00"
"10:44:59","47.4","33.3","57.8","30.10","256","3.2","6","0.00","0.00"
"10:49:58","46.9","31.5","54.9","30.10","343","4.7","8.4","0.00","0.00"
"10:54:58","47","32","55.8","30.10","308","4.4","12","0.00","0.00"
"10:59:58","47.2","31.5","54.3","30.10","326","3.3","8.1","0.00","0.00"
"11:04:58","48.1","32.3","54.1","30.10","331","5.1","12","0.00","0.00"
"11:09:57","48.2","32.3","54","30.10","330","5.1","12","0.00","0.00"
"11:14:59","47.9","32.6","55.1","30.10","235","4.1","10.4","0.00","0.00"
"11:19:57","48.4","33","55","30.08","309","3.2","7.2","0.00","0.00"
"11:24:59","48.1","32.5","54.7","30.08","330","3.3","10.8","0.00","0.00"
"11:29:56","48.8","32.7","53.7","30.08","322","1.2","4.6","0.00","0.00"
"11:34:58","49.3","33.5","54.3","30.07","340","4.2","13.2","0.00","0.00"
"11:39:57","49.4","32.8","52.6","30.07","349","3.9","10.8","0.00","0.00"
"11:44:58","49.3","32.9","53","30.07","336","4.6","9.6","0.00","0.00"
"11:49:56","49.7","32.9","52.4","30.07","299","3.2","12","0.00","0.00"
"11:54:58","49.9","33.2","52.5","30.07","305","3.4","8.4","0.00","0.00"
"11:59:59","49.4","32.9","52.8","30.07","240","1.5","4.8","0.00","0.00"
"12:04:57","49.4","33.1","53.3","30.05","251","2.7","8.4","0.00","0.00"
"12:09:56","49.6","33.2","53.1","30.05","337","4","7.2","0.00","0.00"
"12:14:59","50","34.1","54.2","30.05","298","1.1","3.6","0.00","0.00"
"12:19:56","50.6","33.6","52.1","30.05","340","3.5","9.6","0.00","0.00"
"12:24:58","49","32.1","52","30.05","295","2.2","8.1","0.00","0.00"
"12:29:57","48.6","32.3","53.3","30.05","234","0.9","4.6","0.00","0.00"
"12:34:56","49","32.9","53.7","30.04","282","3.2","8.4","0.00","0.00"
"12:39:59","49.4","33.5","54.3","30.04","305","2.7","7.2","0.00","0.00"
"12:44:57","49.8","33.1","52.5","30.04","336","3.7","7.2","0.00","0.00"
"12:49:55","49.8","32.7","51.7","30.04","325","2.8","6","0.00","0.00"
"12:54:58","50.1","33.1","52","30.04","335","1.2","7.2","0.00","0.00"
"12:59:56","49.9","32.9","51.7","30.04","260","2.8","6.9","0.00","0.00"
"13:04:58","48.8","32.7","53.5","30.04","295","3.7","7.2","0.00","0.00"
"13:09:57","48.5","32.5","53.8","30.04","349","3.4","8.4","0.00","0.00"
"13:14:56","48.2","31.8","53","30.04","332","3.6","8.4","0.00","0.00"
"13:19:58","48","32.2","54.1","30.04","322","3.5","8.4","0.00","0.00"
"13:24:57","47.9","31.7","53.4","30.04","336","3.8","8.1","0.00","0.00"
"13:29:58","47.8","32","54.1","30.04","313","2","6","0.00","0.00"
"13:34:57","48","32.2","54.1","30.02","340","4.2","7.2","0.00","0.00"
"13:39:56","48.3","31.8","52.6","30.02","331","3.8","7.2","0.00","0.00"
"13:44:58","48.4","32","53","30.02","311","1.9","4.8","0.00","0.00"
"13:49:56","48.6","31.8","52.2","30.02","318","2.7","7.2","0.00","0.00"
"13:54:59","48.4","31.8","52.5","30.02","309","3.2","7.2","0.00","0.00"
"13:59:56","49.2","32.5","52.4","30.02","324","2.8","6","0.00","0.00"
"14:04:58","49.1","32.4","52.4","30.01","331","2.4","6","0.00","0.00"
"14:09:58","48.4","31.7","52.1","30.01","334","3.3","6","0.00","0.00"
"14:14:57","48.2","31.9","53","30.01","317","1.7","4.8","0.00","0.00"
"14:19:57","48.4","32.2","53.3","30.01","348","2.6","7.2","0.00","0.00"
"14:24:58","48.3","32","53.1","30.01","331","2.6","6","0.00","0.00"
"14:29:56","47.9","31.5","52.8","30.01","337","1.8","4.8","0.00","0.00"
"14:34:59","47.5","31.9","54.5","30.00","333","0.5","4.6","0.00","0.00"
"14:39:59","47.5","32.3","55.3","30.00","333","0","1.2","0.00","0.00"
"14:44:57","47.6","32.1","54.7","30.00","333","0.1","1.2","0.00","0.00"
"14:49:56","47.6","32.1","54.6","30.00","327","0.1","2.4","0.00","0.00"
"14:54:58","47.5","31.7","53.9","30.00","325","0.8","2.4","0.00","0.00"
"14:59:56","47.6","32","54.5","30.01","325","0.5","2.4","0.00","0.00"
"15:04:58","47.6","31.8","54","30.01","325","0.8","3.6","0.00","0.00"
"15:09:57","47.5","32","54.6","30.01","332","2.5","6","0.00","0.00"
"15:14:57","47.5","32.6","56","30.01","310","1.4","4.8","0.00","0.00"
"15:19:59","47.5","31.9","54.4","30.00","0","2.3","3.6","0.00","0.00"
"15:24:58","47.4","31.7","54.2","30.00","332","2.1","4.8","0.00","0.00"
"15:29:59","47.4","32","55","30.00","332","0.7","4.6","0.00","0.00"
"15:34:59","47.3","31.4","53.7","30.00","332","0.9","2.4","0.00","0.00"
"15:39:58","47.3","31.5","53.9","30.00","332","1.5","3.6","0.00","0.00"
"15:44:57","47.3","31.7","54.6","30.00","333","0.5","2.4","0.00","0.00"
"15:49:59","47.2","31.7","54.8","30.00","333","0.5","2.4","0.00","0.00"
"15:54:58","47.2","31.8","55","30.00","333","0","0","0.00","0.00"
"15:59:57","47","31.8","55.3","30.01","333","0","2.4","0.00","0.00"
"16:04:58","46.8","32.1","56.5","30.01","343","1.1","4.8","0.00","0.00"
"16:09:58","46.5","32","56.9","30.01","338","1.5","4.8","0.00","0.00"
"16:14:57","46.3","32","57.3","30.01","337","0.5","3.6","0.00","0.00"
"16:19:56","46.2","32.2","58","30.01","337","0.5","2.4","0.00","0.00"
"16:24:59","46","32","58","30.01","334","0.7","3.6","0.00","0.00"
"16:29:58","45.9","32.2","58.5","30.01","334","0.2","2.4","0.00","0.00"
"16:34:57","45.8","32.4","59.2","30.01","334","0.2","1.2","0.00","0.00"
"16:39:58","45.6","32.2","59.1","30.01","334","0","1.2","0.00","0.00"
"16:44:57","45.5","32.3","59.6","30.01","334","0","0","0.00","0.00"
"16:49:56","45.4","32","59.1","30.01","334","0","0","0.00","0.00"
"16:54:59","45.3","32.2","59.9","30.01","334","0.2","1.2","0.00","0.00"
"16:59:58","45.2","32.3","60.5","30.02","334","0.4","2.4","0.00","0.00"
"17:04:56","45.1","32.3","60.8","30.02","334","0.3","1.2","0.00","0.00"
"17:09:59","44.9","32.6","61.7","30.02","334","0","0","0.00","0.00"
"17:14:59","44.8","32.6","62","30.02","334","0","0","0.00","0.00"
"17:19:57","44.7","32.5","62","30.02","334","0","1.2","0.00","0.00"
"17:24:56","44.5","32.5","62.4","30.02","334","0","1.2","0.00","0.00"
"17:29:59","44.4","32.4","62.5","30.03","334","0","0","0.00","0.00"
"17:34:58","44.3","32.1","62","30.03","334","0","0","0.00","0.00"
"17:39:58","44.1","32.1","62.5","30.03","334","0","0","0.00","0.00"
"17:44:57","44","32.4","63.5","30.03","334","0","0","0.00","0.00"
"17:49:57","43.9","32.5","64","30.03","334","0","0","0.00","0.00"
"17:54:56","43.8","32.4","64","30.03","334","0","0","0.00","0.00"
"17:59:58","43.8","32.6","64.5","30.03","334","0","0","0.00","0.00"
"18:04:57","43.8","33.2","66","30.03","334","0","0","0.00","0.00"
"18:09:56","43.7","32.8","65.2","30.03","334","0.3","3.6","0.00","0.00"
"18:14:56","43.7","32.6","64.8","30.03","334","0","0","0.00","0.00"
"18:19:59","43.7","32.6","64.8","30.02","334","0.1","1.2","0.00","0.00"
"18:24:57","43.7","32.5","64.5","30.02","334","0.3","2.4","0.00","0.00"
"18:29:59","43.8","32.4","64","30.02","334","0.2","2.4","0.00","0.00"
"18:34:59","43.8","32.4","64.1","30.02","334","0.3","2.4","0.00","0.00"
"18:39:58","43.8","32.7","64.8","30.02","335","0.2","2.4","0.00","0.00"
"18:44:57","43.8","32.8","64.8","30.03","335","0.4","2.4","0.00","0.00"
"18:49:59","43.9","32.8","64.8","30.03","335","0.4","2.4","0.00","0.00"
"18:54:58","43.9","32.6","64.2","30.03","335","0.6","3.6","0.00","0.00"
"18:59:56","43.9","32.9","64.9","30.03","335","0.8","3.6","0.00","0.00"
"19:04:59","43.8","32.9","65.2","30.03","335","0.5","2.4","0.00","0.00"
"19:09:58","43.8","33","65.5","30.03","335","0.4","2.4","0.00","0.00"
"19:14:59","43.7","33","65.7","30.03","335","0.3","2.4","0.00","0.00"
"19:19:57","43.7","32.8","65.3","30.02","335","0.3","1.2","0.00","0.00"
"19:24:56","43.6","33","66","30.02","335","0.4","3.6","0.00","0.00"
"19:29:59","43.6","33.1","66.4","30.02","335","0.2","1.2","0.00","0.00"
"19:34:58","43.5","33.1","66.5","30.02","309","0.2","2.4","0.00","0.00"
"19:39:58","43.4","33.2","66.8","30.02","309","0.4","2.4","0.00","0.00"
"19:44:57","43.4","33.2","67","30.02","309","0","1.2","0.00","0.00"
"19:49:59","43.3","33.1","67","30.02","309","0.1","1.2","0.00","0.00"
"19:54:58","43.3","33.1","67.2","30.02","309","0","1.2","0.00","0.00"
"19:59:57","43.3","33.2","67.5","30.03","309","0.1","1.2","0.00","0.00"
"20:04:59","43.2","33.3","68","30.03","309","0.4","2.4","0.00","0.00"
"20:09:59","43.2","33.3","68","30.03","309","0.8","3.6","0.00","0.00"
"20:14:59","43.1","33.3","68","30.03","297","1","3.6","0.00","0.00"
"20:19:57","43.1","33.3","68","30.02","325","1.2","4.8","0.00","0.00"
"20:24:56","43","33.2","68","30.02","336","0.7","3.6","0.00","0.00"
"20:29:58","42.8","33.1","68.3","30.02","342","1","2.4","0.00","0.00"
"20:34:56","42.6","33.1","69","30.02","346","1.4","4.8","0.00","0.00"
"20:39:56","42.5","33","69.1","30.02","355","1.5","4.8","0.00","0.00"
"20:44:59","42.4","33.3","70","30.02","332","0.6","3.6","0.00","0.00"
"20:49:57","42.2","33.1","70","30.02","327","0.6","2.4","0.00","0.00"
"20:54:56","42.1","33.3","70.5","30.02","336","1.2","8.4","0.00","0.00"
"20:59:59","42","33.4","71.2","30.02","329","1.1","4.8","0.00","0.00"
"21:04:57","41.8","33.4","72","30.02","325","1.2","4.8","0.00","0.00"
"21:09:56","41.7","33.5","72.6","30.02","324","0.7","6","0.00","0.00"
"21:14:56","41.5","33.7","73.6","30.02","12","1.4","6","0.00","0.00"
"21:19:59","41.3","33.8","74.6","30.01","352","1.6","6","0.00","0.00"
"21:24:59","41.1","34","75.6","30.01","339","1.6","4.8","0.00","0.00"
"21:29:58","41","34.1","76.2","30.01","9","2.3","6","0.00","0.00"
"21:34:57","40.9","34.2","77","30.01","335","1.7","6","0.00","0.00"
"21:39:56","40.8","34.4","77.7","30.01","344","2.6","6","0.00","0.00"
"21:44:59","40.7","34.4","78","30.01","336","1.6","6","0.00","0.00"
"21:49:58","40.6","34.3","78","30.01","10","2","7.2","0.00","0.00"
"21:54:56","40.4","34.1","78","30.01","359","1.6","5.8","0.00","0.00"
"21:59:59","40.4","34.4","78.9","30.01","355","1.7","6","0.00","0.00"
"22:04:57","40.3","34.3","79","30.01","12","0.7","3.6","0.00","0.00"
"22:09:57","40.2","34.3","79.2","30.01","339","2.5","8.4","0.00","0.00"
"22:14:57","40.2","34.4","79.7","30.01","330","0.8","4.8","0.00","0.00"
"22:19:59","40.1","34.4","80","30.01","356","1.9","6","0.00","0.00"
"22:24:58","40","34.3","80","30.01","4","0.6","4.8","0.00","0.00"
"22:29:56","40","34.3","80.1","30.01","341","2.3","6","0.00","0.00"
"22:34:56","39.9","34.5","81","30.01","333","0.8","3.6","0.00","0.00"
"22:39:59","39.8","34.4","81","30.01","356","1.3","6","0.00","0.00"
"22:44:58","39.8","34.4","81","30.01","346","1.8","4.8","0.00","0.00"
"22:49:56","39.7","34.6","81.8","30.01","339","1.6","6","0.00","0.00"
"22:54:59","39.7","34.7","82","30.01","341","1.8","6","0.00","0.00"
"22:59:58","39.5","34.6","82.3","30.01","344","1.7","8.4","0.00","0.00"
"23:04:56","39.5","34.8","83","30.01","336","0.8","8.1","0.00","0.00"
"23:09:59","39.3","34.6","83","30.01","344","2.6","7.2","0.00","0.00"
"23:14:59","39.2","34.8","83.7","30.01","339","1","7.2","0.00","0.00"
"23:19:58","39.2","34.8","84","30.01","343","0.8","4.8","0.00","0.00"
"23:24:57","39.1","34.7","84","30.01","344","1.5","4.8","0.00","0.00"
"23:29:59","38.9","34.7","84.6","30.01","341","1.2","4.8","0.00","0.00"
"23:34:58","38.8","34.7","85","30.00","335","2.1","4.8","0.00","0.00"
"23:39:58","38.7","34.6","85","30.00","338","0.7","3.5","0.00","0.00"
"23:44:57","38.6","34.5","85.1","30.01","332","0.4","3.6","0.00","0.00"
